Flag for Germany Weather past 2 weeks in Varel, Lower Saxony, Germany

Now
52 °F

Passing clouds.


Feels Like: 49 °F
Forecast: 54 / 62 °F
Wind: 7 mph from Southwest

Location: Wittmundhaven

Current Time: Aug 23, 2014 at 2:10:31 AM

Latest Report: Aug 23, 2014 at 1:20 AM


Visibility: N/A

Pressure: 29.80 "Hg

Humidity: 94%

Dew point: 50 °F

Location of VarelLocation

Historic Weather in Varel — Graph

°F

Varel temperature yesterday

Maximum temperature yesterday: 63 °F (at 3:20 PM)
Minimum temperature yesterday: 52 °F (at 12:20 AM)
Average temperature yesterday: 56 °F

Past Weeks' High & Low Weather Summary

 TemperatureHumidityPressure
High79 °F (Aug 10, 3:20 PM)100% (Aug 8, 12:20 AM)30.01 "Hg (Aug 8, 12:20 AM)
Low46 °F (Aug 21, 5:20 AM)40% (Aug 11, 4:20 PM)29.47 "Hg (Aug 10, 9:20 PM)
Average60 °F79%29.76 "Hg
* Reported Aug 8 12:20 AM — Aug 23 12:20 AM, Varel, Weather by CustomWeather, © 2014

Note: Actual official high and low records may vary slightly from our data, if they occured in-between our weather recording intervals... More about our weather records

Advertising

Varel weather history for previous 24 hours

 ConditionsComfort  
Time TempWeatherWind HumidityBarometerVisibility
12:20 AM
Aug 23
52 °FPassing clouds.7 mph100%29.80 "HgN/A
11:20 PM
Aug 22
54 °FSprinkles. Partly cloudy.8 mph94%29.80 "Hg5 mi
10:20 PM54 °FPartly cloudy.9 mph94%29.80 "HgN/A
9:20 PM54 °FLight rain. Broken clouds.8 mph94%29.80 "HgN/A
8:50 PM55 °FRain. Broken clouds.9 mph94%29.77 "HgN/A
8:20 PM55 °FLight rain. Partly sunny.10 mph94%29.77 "HgN/A
7:20 PM55 °FBroken clouds.8 mph88%29.77 "HgN/A
6:20 PM55 °FBroken clouds.13 mph88%29.77 "HgN/A
5:20 PM61 °FSprinkles. Broken clouds.17 mph68%29.77 "HgN/A
4:20 PM63 °FBroken clouds.21 mph64%29.77 "HgN/A
3:20 PM63 °FBroken clouds.17 mph64%29.77 "HgN/A
2:20 PM61 °FBroken clouds.16 mph68%29.77 "HgN/A
1:20 PM61 °FBroken clouds.18 mph68%29.77 "HgN/A
12:20 PM61 °FPartly sunny.20 mph68%29.77 "HgN/A
11:20 AM59 °FPartly sunny.16 mph72%29.77 "HgN/A
10:20 AM57 °FLight rain. Partly sunny.16 mph77%29.77 "HgN/A
9:20 AM55 °FBroken clouds.16 mph82%29.80 "HgN/A
8:20 AM54 °FBroken clouds.13 mph88%29.77 "HgN/A
7:20 AM54 °FLight rain. Partly sunny.12 mph88%29.80 "HgN/A
6:20 AM54 °FLight rain. Passing clouds.10 mph88%29.80 "HgN/A
5:20 AM52 °FPassing clouds.9 mph88%29.80 "HgN/A
4:20 AM52 °FPassing clouds.8 mph88%29.83 "HgN/A
3:20 AM52 °FPassing clouds.8 mph88%29.86 "HgN/A
2:20 AM52 °FPassing clouds.8 mph88%29.86 "HgN/A
Weather by CustomWeather, © 2014

See weather overviewHow to use our weather pages